Location: Bothwell
(41.7170°N, 112.2589°W)
Time: 01:55:29
(UTC+00:00)

STARLINK-37267 - Pass Details

Date: 19 April 2026
Orbit: 259 x 261 km, 97.3° (Epoch: 18 April)

Event Time Altitude Azimuth Distance (km) Brightness Sun altitude
Rises 04:04:09 0° 12° (NNE) 1,890 5.7 -19.4°
Reaches altitude 10° 04:05:58 10° 14° (NNE) 1,076 4.4 -19.6°
Enters shadow 04:06:02 11° 14° (NNE) 1,052 4.3 -19.7°
